GW7030 Weather Reports


time (UTC)temp
C
wind
direction
speed
KPH
gust
KPH
rain 1hr
cm
rain 24hr
cm
rain mn
cm
humidity
%
barometer
mb
20260502130516 10 328 0.0 0.0 0.00 0.00 0.00 81 1017.8
20260502123515 10 328 0.0 0.0 0.00 0.00 0.00 80 1017.9
20260502123045 10 328 0.0 0.0 0.00 0.00 0.00 80 1018.0
20260502122515 10 328 0.0 1.6 0.00 0.00 0.00 79 1018.0
20260502122016 10 328 0.0 1.6 0.00 0.00 0.00 79 1017.8
20260502121539 10 328 0.0 1.6 0.00 0.00 0.00 80 1017.8
20260502121028 10 328 0.0 1.6 0.00 0.00 0.00 81 1017.8
20260502120517 10 328 0.0 1.6 0.00 0.00 0.00 82 1018.0
20260502115519 10 328 0.0 0.0 0.00 0.00 0.00 83 1018.5
20260502115013 10 328 0.0 0.0 0.00 0.00 0.00 81 1018.5
20260502114554 10 328 0.0 1.6 0.00 0.00 0.00 82 1018.6
20260502114017 10 328 0.0 1.6 0.00 0.00 0.00 82 1018.6
20260502113517 10 328 0.0 0.0 0.00 0.00 0.00 82 1018.6
20260502113110 10 328 0.0 0.0 0.00 0.00 0.00 82 1018.6
20260502112519 10 328 0.0 0.0 0.00 0.00 0.00 82 1018.7
20260502112016 10 334 0.0 1.6 0.00 0.00 0.00 82 1018.7
20260502111608 10 334 0.0 1.6 0.00 0.00 0.00 81 1018.7
20260502111017 10 324 0.0 1.6 0.00 0.00 0.00 81 1018.6
20260502110521 10 324 0.0 1.6 0.00 0.00 0.00 81 1018.6
20260502110107 10 324 0.0 1.6 0.00 0.00 0.00 80 1018.5
20260502105519 10 324 0.0 1.6 0.00 0.00 0.00 80 1018.6
20260502105015 10 324 0.0 0.0 0.00 0.00 0.00 80 1018.5
20260502104600 10 324 0.0 0.0 0.00 0.00 0.00 79 1018.2
20260502104029 10 324 0.0 1.6 0.00 0.00 0.00 79 1018.2
20260502103518 10 324 0.0 1.6 0.00 0.00 0.00 79 1018.1
20260502103110 11 324 0.0 0.0 0.00 0.00 0.00 79 1018.2
20260502102515 11 324 0.0 0.0 0.00 0.00 0.00 79 1018.4
20260502102016 11 324 0.0 0.0 0.00 0.00 0.00 79 1018.3
20260502101828 11 324 0.0 0.0 0.00 0.00 0.00 78 1018.4
20260502101016 11 324 0.0 0.0 0.00 0.00 0.00 78 1018.2
20260502100518 11 324 0.0 1.6 0.00 0.00 0.00 78 1018.3
20260502091017 11 324 0.0 1.6 0.00 0.00 0.00 77 1018.5
20260502090518 11 324 0.0 1.6 0.00 0.00 0.00 77 1018.5
20260502090106 11 324 0.0 1.6 0.00 0.00 0.00 76 1018.4
20260502071018 12 324 0.0 1.6 0.00 0.00 0.00 73 1018.5
20260502070518 12 324 0.0 0.0 0.00 0.00 0.00 73 1018.6
20260502070057 12 324 0.0 0.0 0.00 0.00 0.00 73 1018.7
20260502065518 12 324 0.0 0.0 0.00 0.00 0.00 73 1018.7
20260502065016 12 324 0.0 0.0 0.00 0.00 0.00 73 1018.7
20260502064558 12 324 0.0 0.0 0.00 0.00 0.00 73 1018.6
20260502064013 12 324 0.0 0.0 0.00 0.00 0.00 73 1018.6
20260502063518 12 324 0.0 1.6 0.00 0.00 0.00 73 1018.5
20260502063051 12 324 0.0 1.6 0.00 0.00 0.00 73 1018.5
20260502062517 12 323 0.0 0.0 0.00 0.00 0.00 72 1018.6
20260502062018 12 323 0.0 0.0 0.00 0.00 0.00 72 1018.6
20260502061550 12 323 0.0 0.0 0.00 0.00 0.00 72 1018.6
20260502061021 12 323 0.0 0.0 0.00 0.00 0.00 72 1018.6
20260502060526 12 323 0.0 1.6 0.00 0.00 0.00 71 1018.6
20260502055521 12 323 0.0 1.6 0.00 0.00 0.00 71 1018.5
20260502055021 12 323 0.0 1.6 0.00 0.00 0.00 71 1018.5
20260502054601 12 323 0.0 1.6 0.00 0.00 0.00 71 1018.5
20260502054021 12 324 0.0 1.6 0.00 0.00 0.00 72 1018.5
20260502053521 12 335 0.0 1.6 0.00 0.00 0.00 71 1018.5
20260502053038 12 335 0.0 1.6 0.00 0.00 0.00 71 1018.6
20260502052523 12 335 0.0 1.6 0.00 0.00 0.00 71 1018.6
20260502052018 12 335 0.0 1.6 0.00 0.00 0.00 72 1018.6
20260502051603 12 335 0.0 1.6 0.00 0.00 0.00 71 1018.6
20260502051021 12 21 0.0 3.2 0.00 0.00 0.00 71 1018.6
20260502050517 12 21 0.0 3.2 0.00 0.00 0.00 71 1018.5
20260502050053 12 21 0.0 1.6 0.00 0.00 0.00 72 1018.5
20260502045515 12 21 0.0 1.6 0.00 0.00 0.00 72 1018.5
20260502045031 12 21 0.0 1.6 0.00 0.00 0.00 71 1018.5
20260502044614 12 21 0.0 3.2 0.00 0.00 0.00 71 1018.5
20260502044016 12 21 0.0 6.4 0.00 0.00 0.00 70 1018.5
20260502043515 13 6 1.6 6.4 0.00 0.00 0.00 70 1018.6
20260502043115 13 11 0.0 6.4 0.00 0.00 0.00 69 1018.5
20260502042515 13 292 0.0 6.4 0.00 0.00 0.00 69 1018.4
20260502042016 13 25 0.0 0.0 0.00 0.00 0.00 70 1018.3
20260502041557 13 25 0.0 0.0 0.00 0.00 0.00 70 1018.1
20260502041016 13 25 0.0 4.8 0.00 0.00 0.00 69 1018.1
20260502040515 13 25 0.0 4.8 0.00 0.00 0.00 68 1018.1
20260502040116 13 325 0.0 1.6 0.00 0.00 0.00 68 1018.1
20260502035517 13 325 0.0 0.0 0.00 0.00 0.00 67 1018.0
20260502035029 13 325 0.0 0.0 0.00 0.00 0.00 67 1018.0
20260502034616 14 325 0.0 0.0 0.00 0.00 0.00 67 1018.0
20260502034022 14 325 0.0 0.0 0.00 0.00 0.00 66 1017.9
20260502033520 14 325 0.0 0.0 0.00 0.00 0.00 66 1017.8
20260502033112 14 325 0.0 0.0 0.00 0.00 0.00 67 1017.7
20260502032516 15 325 0.0 0.0 0.00 0.00 0.00 65 1017.8
20260502032021 15 325 0.0 0.0 0.00 0.00 0.00 65 1017.7
20260502031624 15 325 0.0 1.6 0.00 0.00 0.00 65 1017.6
20260502031019 15 325 0.0 1.6 0.00 0.00 0.00 65 1017.7
20260502030520 15 325 0.0 1.6 0.00 0.00 0.00 64 1017.7
20260502030121 15 325 0.0 1.6 0.00 0.00 0.00 63 1017.6
20260502025519 15 325 0.0 0.0 0.00 0.00 0.00 62 1017.6
20260502025019 15 325 0.0 0.0 0.00 0.00 0.00 62 1017.6
20260502024619 15 325 0.0 0.0 0.00 0.00 0.00 62 1017.6
20260502024019 15 325 0.0 0.0 0.00 0.00 0.00 60 1017.5
20260502023519 15 325 0.0 1.6 0.00 0.00 0.00 61 1017.5
20260502023136 15 325 0.0 1.6 0.00 0.00 0.00 60 1017.6
20260502022515 15 325 0.0 1.6 0.00 0.00 0.00 59 1017.6
20260502022016 15 325 0.0 1.6 0.00 0.00 0.00 58 1017.4
20260502021552 15 325 0.0 1.6 0.00 0.00 0.00 58 1017.5
20260502021020 16 301 0.0 1.6 0.00 0.00 0.00 58 1017.4
20260502020519 16 301 0.0 1.6 0.00 0.00 0.00 59 1017.3
20260502020057 16 301 0.0 1.6 0.00 0.00 0.00 57 1017.3
20260502015518 16 300 0.0 1.6 0.00 0.00 0.00 57 1017.3
20260502015017 16 37 0.0 1.6 0.00 0.00 0.00 56 1017.5
20260502014557 16 37 0.0 1.6 0.00 0.00 0.00 56 1017.5
20260502014016 16 37 0.0 1.6 0.00 0.00 0.00 56 1017.5
20260502013524 16 36 0.0 1.6 0.00 0.00 0.00 54 1017.6
20260502013105 17 37 0.0 1.6 0.00 0.00 0.00 53 1017.5
20260502012519 17 37 0.0 1.6 0.00 0.00 0.00 52 1017.6
20260502012019 17 37 0.0 3.2 0.00 0.00 0.00 52 1017.6
20260502011557 17 37 0.0 3.2 0.00 0.00 0.00 50 1017.7
20260502011016 17 37 0.0 3.2 0.00 0.00 0.00 50 1017.8
20260502010518 17 37 0.0 3.2 0.00 0.00 0.00 50 1017.6
20260502010100 17 37 0.0 3.2 0.00 0.00 0.00 49 1017.5
20260502005520 17 37 0.0 3.2 0.00 0.00 0.00 49 1017.6
20260502005017 17 36 0.0 3.2 0.00 0.00 0.00 49 1017.6
20260502004604 17 37 0.0 3.2 0.00 0.00 0.00 49 1017.5
20260502004017 17 37 0.0 1.6 0.00 0.00 0.00 49 1017.5
20260502003516 17 37 0.0 3.2 0.00 0.00 0.00 49 1017.6
20260502003057 17 37 0.0 3.2 0.00 0.00 0.00 50 1017.6
20260502002514 17 38 0.0 3.2 0.00 0.00 0.00 50 1017.5
20260502002014 17 38 0.0 4.8 0.00 0.00 0.00 49 1017.6
20260502001553 17 38 1.6 4.8 0.00 0.00 0.00 50 1017.5
20260502001014 18 40 1.6 4.8 0.00 0.00 0.00 51 1017.6
20260502000516 18 47 0.0 4.8 0.00 0.00 0.00 49 1017.7
20260502000105 18 46 0.0 4.8 0.00 0.00 0.00 51 1017.7
20260501235517 18 59 0.0 4.8 0.00 0.00 0.00 51 1017.7
20260501235016 19 53 1.6 4.8 0.00 0.00 0.00 49 1017.6
20260501234553 19 130 0.0 3.2 0.00 0.00 0.00 49 1017.8
20260501234014 20 130 0.0 6.4 0.00 0.00 0.00 47 1017.8
20260501233515 20 142 3.2 6.4 0.00 0.00 0.00 48 1017.9
20260501233104 20 139 1.6 4.8 0.00 0.00 0.00 48 1017.8
20260501232516 20 142 1.6 6.4 0.00 0.00 0.00 46 1017.8
20260501232020 20 154 3.2 6.4 0.00 0.00 0.00 46 1017.8
20260501231555 20 136 1.6 6.4 0.00 0.00 0.00 47 1018.0
20260501231016 20 138 3.2 6.4 0.00 0.00 0.00 46 1018.0
20260501230518 20 133 3.2 4.8 0.00 0.00 0.00 46 1018.0
20260501230106 20 119 3.2 4.8 0.00 0.00 0.00 47 1018.1
20260501225516 20 118 1.6 4.8 0.00 0.00 0.00 48 1018.2
20260501225015 20 129 1.6 4.8 0.00 0.00 0.00 47 1018.1
20260501224605 20 104 0.0 6.4 0.00 0.00 0.00 44 1018.3
20260501224016 20 136 3.2 6.4 0.00 0.00 0.00 45 1018.2
20260501223516 21 133 1.6 6.4 0.00 0.00 0.00 45 1018.4
20260501223101 21 110 0.0 6.4 0.00 0.00 0.00 42 1018.4
20260501222517 21 123 3.2 6.4 0.00 0.00 0.00 45 1018.5
20260501222021 21 117 1.6 6.4 0.00 0.00 0.00 41 1018.6
20260501221549 21 144 3.2 8.0 0.00 0.00 0.00 43 1018.5
20260501221015 21 107 0.0 8.0 0.00 0.00 0.00 36 1018.5
20260501220517 21 150 3.2 6.4 0.00 0.00 0.00 42 1018.6
20260501220058 21 299 1.6 6.4 0.00 0.00 0.00 36 1018.7
20260501215516 21 110 1.6 8.0 0.00 0.00 0.00 44 1018.8
20260501215028 21 144 3.2 8.0 0.00 0.00 0.00 44 1018.7
20260501214548 21 146 1.6 8.0 0.00 0.00 0.00 43 1018.7
20260501214019 21 156 4.8 6.4 0.00 0.00 0.00 45 1018.8
20260501213527 20 131 1.6 6.4 0.00 0.00 0.00 42 1018.9
20260501213039 21 175 3.2 6.4 0.00 0.00 0.00 42 1018.9
20260501212517 20 150 1.6 6.4 0.00 0.00 0.00 44 1019.1
20260501212029 20 165 3.2 6.4 0.00 0.00 0.00 42 1019.1
20260501211600 20 152 3.2 6.4 0.00 0.00 0.00 45 1019.1
20260501211018 20 169 1.6 6.4 0.00 0.00 0.00 43 1019.1
20260501210516 20 156 3.2 6.4 0.00 0.00 0.00 47 1018.9
20260501210058 19 153 1.6 6.4 0.00 0.00 0.00 46 1019.1
20260501205514 19 158 1.6 4.8 0.00 0.00 0.00 50 1019.1
20260501205027 19 152 3.2 4.8 0.00 0.00 0.00 47 1019.1
20260501204608 20 148 1.6 6.4 0.00 0.00 0.00 49 1019.1
20260501204016 20 138 3.2 6.4 0.00 0.00 0.00 47 1019.1
20260501203516 20 151 3.2 6.4 0.00 0.00 0.00 47 1019.2
20260501203152 20 154 1.6 6.4 0.00 0.00 0.00 46 1019.2
20260501202517 20 148 3.2 6.4 0.00 0.00 0.00 49 1019.1
20260501202017 20 144 3.2 6.4 0.00 0.00 0.00 50 1019.2
20260501201632 19 157 3.2 6.4 0.00 0.00 0.00 48 1019.2
20260501201017 19 162 1.6 6.4 0.00 0.00 0.00 47 1019.1
20260501200516 20 152 1.6 8.0 0.00 0.00 0.00 48 1019.2
20260501200133 20 170 1.6 8.0 0.00 0.00 0.00 45 1019.2
20260501195519 20 161 3.2 6.4 0.00 0.00 0.00 49 1019.0
20260501195014 20 152 3.2 6.4 0.00 0.00 0.00 51 1019.1
20260501194625 19 181 3.2 6.4 0.00 0.00 0.00 51 1019.1
20260501194017 19 158 1.6 6.4 0.00 0.00 0.00 50 1019.1
20260501193514 18 144 3.2 6.4 0.00 0.00 0.00 54 1019.1
20260501193125 17 160 3.2 6.4 0.00 0.00 0.00 57 1019.1
20260501192516 17 133 0.0 6.4 0.00 0.00 0.00 53 1019.1
20260501192016 17 152 0.0 6.4 0.00 0.00 0.00 49 1019.1
20260501191653 17 171 3.2 4.8 0.00 0.00 0.00 57 1019.3
20260501191017 17 129 0.0 4.8 0.00 0.00 0.00 53 1019.3
20260501190520 17 138 1.6 4.8 0.00 0.00 0.00 57 1019.4
20260501190312 17 154 3.2 6.4 0.00 0.00 0.00 56 1019.4
20260501185514 17 154 3.2 6.4 0.00 0.00 0.00 55 1019.4
20260501185012 16 156 1.6 6.4 0.00 0.00 0.00 58 1019.4
20260501184539 16 165 1.6 6.4 0.00 0.00 0.00 55 1019.2
20260501184017 16 162 0.0 6.4 0.00 0.00 0.00 58 1019.3
20260501183516 16 147 3.2 6.4 0.00 0.00 0.00 60 1019.3
20260501183054 16 162 1.6 6.4 0.00 0.00 0.00 56 1019.3
20260501182516 15 145 3.2 6.4 0.00 0.00 0.00 58 1019.2
20260501182019 15 140 0.0 6.4 0.00 0.00 0.00 59 1019.2
20260501181553 15 155 3.2 6.4 0.00 0.00 0.00 60 1019.2
20260501181016 15 152 1.6 4.8 0.00 0.00 0.00 63 1019.2
20260501180516 15 162 1.6 4.8 0.00 0.00 0.00 64 1019.3
20260501180101 15 162 0.0 4.8 0.00 0.00 0.00 58 1019.4
20260501175518 15 167 0.0 3.2 0.00 0.00 0.00 60 1019.3
20260501175017 15 120 0.0 4.8 0.00 0.00 0.00 65 1019.4
20260501174551 15 144 1.6 4.8 0.00 0.00 0.00 61 1019.5
20260501174136 14 144 1.6 4.8 0.00 0.00 0.00 65 1019.4
20260501173527 14 165 1.6 4.8 0.00 0.00 0.00 64 1019.5
20260501173042 14 147 1.6 4.8 0.00 0.00 0.00 64 1019.4
20260501172517 13 147 1.6 4.8 0.00 0.00 0.00 65 1019.2
20260501172017 13 147 1.6 4.8 0.00 0.00 0.00 62 1019.2
20260501171544 13 146 0.0 4.8 0.00 0.00 0.00 64 1019.2
20260501171014 13 145 0.0 4.8 0.00 0.00 0.00 62 1019.2
20260501170514 13 141 1.6 3.2 0.00 0.00 0.00 64 1019.1
20260501170041 13 141 0.0 3.2 0.00 0.00 0.00 65 1019.3
20260501165514 13 141 0.0 3.2 0.00 0.00 0.00 65 1019.3
20260501165014 13 141 0.0 4.8 0.00 0.00 0.00 62 1019.3
20260501164546 13 141 1.6 4.8 0.00 0.00 0.00 62 1019.2
20260501164017 12 122 1.6 3.2 0.00 0.00 0.00 68 1019.2
20260501163515 12 122 0.0 3.2 0.00 0.00 0.00 69 1019.2
20260501163040 12 101 0.0 3.2 0.00 0.00 0.00 68 1019.3
20260501162517 12 101 0.0 3.2 0.00 0.00 0.00 63 1019.3
20260501162017 12 101 0.0 3.2 0.00 0.00 0.00 66 1019.2
20260501161612 12 48 0.0 1.6 0.00 0.00 0.00 62 1019.5
20260501161016 12 48 0.0 4.8 0.00 0.00 0.00 66 1019.4
20260501160517 12 48 0.0 4.8 0.00 0.00 0.00 62 1019.4
20260501160117 12 113 0.0 3.2 0.00 0.00 0.00 63 1019.4
20260501155525 12 344 0.0 1.6 0.00 0.00 0.00 60 1019.4
20260501155020 12 343 0.0 1.6 0.00 0.00 0.00 61 1019.3
20260501154558 12 335 0.0 1.6 0.00 0.00 0.00 64 1019.3
20260501154025 12 335 0.0 3.2 0.00 0.00 0.00 61 1019.3
20260501153527 12 335 0.0 3.2 0.00 0.00 0.00 61 1019.4
20260501153054 12 332 0.0 1.6 0.00 0.00 0.00 64 1019.4
20260501152516 12 332 0.0 1.6 0.00 0.00 0.00 62 1019.3
20260501152015 12 332 0.0 1.6 0.00 0.00 0.00 62 1019.4
20260501151813 12 332 0.0 0.0 0.00 0.00 0.00 61 1019.2
20260501151018 12 332 0.0 0.0 0.00 0.00 0.00 61 1019.2
20260501150514 12 332 0.0 0.0 0.00 0.00 0.00 60 1019.2
20260501150512 12 332 0.0 0.0 0.00 0.00 0.00 60 1019.2
20260501145517 12 332 0.0 0.0 0.00 0.00 0.00 60 1019.2
20260501145020 12 332 0.0 0.0 0.00 0.00 0.00 57 1019.1
20260501144615 12 332 0.0 0.0 0.00 0.00 0.00 57 1019.0
20260501144020 12 332 0.0 0.0 0.00 0.00 0.00 60 1019.1
20260501143517 12 332 0.0 0.0 0.00 0.00 0.00 60 1019.1
20260501143108 12 332 0.0 1.6 0.00 0.00 0.00 58 1019.0